sat.trackr.live / text

‹ back to catalog

STARLINK-32148

NORAD 60263 · 2024-131J

PAYLOAD ACTIVE UNKNOWN

§ Identity

Operator
Country
US
Launch date
2024-07-27
Launch site
AFETR
Launch vehicle
Mass (kg)
RCS (m²)

Purposes: comms

External: N2YO · Heavens-Above · Gunter

§ Orbital elements

Epoch: 2026-05-25T03:19:11.235936Z

Period
94.01 min
Inclination
53.1614°
Eccentricity
0.0001345
Mean motion
15.31717547 rev/d
Perigee alt
469.8 km
Apogee alt
471.6 km
Semi-major
6,848.8 km
B*
1.3891e-4
RAAN
57.3037°
Arg perigee
86.1070°
Mean anomaly
274.0085°
Rev number
10,347

§ Raw data

STARLINK-321481 60263U 24131J   26145.13832449  .00003950  00000+0  13891-3 0  99912 60263  53.1614  57.3037 0001345  86.1070 274.0085 15.31717547103471

JSON: /api/v1/satellites/60263 · /tle

For live sub-satellite position, see the globe view (requires WebGL).

§ Visibility from observer

Set your observer location to see the next 7 days of passes ≥ 10°. The values pass through the URL so the page stays shareable.

No JS? Fill the form by hand. The geolocation button needs JavaScript.